Location: Suzhou
(31.3110°N, 120.6180°E)
Time: 14:01:42
(UTC+08:00)

FO-29 - Pass Details

Date: 20 April 2026
Orbit: 800 x 1320 km, 98.5° (Epoch: 15 May)

Event Time Altitude Azimuth Distance (km) Brightness Sun altitude
Rises 20:25:42 0° 8° (N) 4,156 13.1 -23.7°
Reaches altitude 10° 20:28:30 10° 5° (N) 3,126 12.4 -24.2°
Maximum altitude 20:35:29 60° 287° (WNW) 1,234 10.2 -25.5°
Drops below altitude 10° 20:41:37 10° 209° (SSW) 2,755 11.8 -26.6°
Sets 20:43:58 0° 206° (SSW) 3,632 12.4 -27.0°
